OBJECT BT, 62674

Orbit data source: Space-Track

You're viewing an Uncataloged Satellite

Recently launched and/or uncataloged satellites may have evolving metadata. Metadata may include but not limited to: Owner, Maufacturer, Bus, Motor, and Mission.

OBJECT BT, 62674 is a satellite in SSO that was launched on Tue, 14 Jan 2025 UTC via an FALCON 9 launch vehicle from the Air Force Western Test Range (AFWTR). Unknown objects in Earth's orbit typically refer to objects detected orbiting the Earth but have not yet been identified or cataloged. These objects could be anything from previously untracked satellites, spent rocket stages, debris from satellite collisions, or even natural meteoroids temporarily captured by Earth's gravity.

Loading next visibility...
Identifier
62674, 2025-009BT
Orbit
SSO
Country
Flag of TBDTBD
Related business
None
Manufacturer
Unknown
Mission
Operational Commercial Imaging
Bus & Motor
Unknown
Mass
Unknown
Launch date (UTC)
2025-01-14 (1 year ago)
Launch vehicle
FALCON 9
Launch site
Air Force Western Test Range (AFWTR)
Object type
Unknown
Shape & HBR
Box + 2 Pan, 0.1 m
Radar Cross Section
0.035 m², Medium (>0.1 m² and < 1m²)

Expand to show TLE details & history
Last TLE update: 20 hours ago

TLE from 20 hours ago
0 OBJECT BT
1 62674U 25009BT  26150.65762764  .00014341  00000-0  49978-3 0  9991
2 62674  97.4063 233.1583 0004960  32.7546 327.4001 15.29744538133885
Epoch: 2026-05-30T15:46Z
TLE epoch observation values (Epoch: 2026-05-30T15:46:59.028Z)
Latitude
-0.00001°
Longitude
108.24184°
Altitude
476.814 km
Speed
7.629 km/s
True Right ascension
15h 32m 37s
True Declination
0° 00' 00"
Sunlit
Object was in full shadow at epoch
Visualization orbit readout
Latitude
Unknown
Longitude
Unknown
Altitude
Unknown
Speed
Unknown
Apparent Right ascension
Unknown
Apparent Declination
Unknown
Sunlit
N/A
Visualization observer readout
Local Sidereal Time
21:29:24
Azimuth
Unknown
Elevation
Unknown
Doppler factor
Unknown
Orbital elements
Apogee altitude
476.927 km
Perigee altitude
470.13 km
Semi-major axis
6,851.665 km
Eccentricity
0.0005
Inclination
97.4063°
RAAN
233.1583°
Arg. of periapsis
32.7546°
True anomaly
327.36946°
Mean anomaly
327.4001°
Eccentric anomaly
327.38478°
Mean motion
3.82692 °/min
Orbital period
94.07 mins
BSTAR
0.00049978
Loading maneuver chart data...
Computing Atmospheric mass density...
Loading historical data...
Loading historical data...
Loading historical data...
Loading historical data...
Loading historical data...
Loading historical data...
Loading historical data...

Documentation

Showing up to 5 results
|